Página principal
METAR-TAF:

METAR-TAF

Aeroportos :

Ardabil, Irão

latitude: 38-19-35N, longitude: 048-25-28E, altura: 1315 m

Observação actual do tempo

O boletim foi feito há 30 minutos, às 01:51 UTC
Vento 14 kt de es-nordeste
Temperatura 2°C
Humidade 93%
Pressão 1013 hPa
Visibilidade: 8000 m
Nuvens fragmentadasa uma altura de 300 ft
Encobertoa uma altura de 2000 ft
nevoeiro nas vizinhanças

METAR: OITL 190151Z 07014KT 8000 VCFG BKN003 OVC020 02/01 Q1013

Hora: 06:51 (02:21 UTC)


TAF: em falta

Observações e previsões do tempo de mais de 4000 aeroportos (mensagens METAR e TAF).

As estações disponíveis são os pontos amarelos e vermelhos sobre o mapa.

Mova o rato sobre o mapa para ver o nome da estação.

Depois clique no ponto para visualizar as observações e previsões meteorológicas.

Para alterar o mapa : clique nos botões verdes com uma cruz preta para aumentar o zoom; no botão verde com uma pitada de zoom; ou nas setas verdes para mapas adjacentes.


METAR-TAF: